Timeline UpdatesTrip UpdatesNews PostsPvt Posts♥♥Travel TipsAdmin PostsConv PostsFollowed PostsChat RequestsBlog PostsPNR Posts

Disclaimer
Search
 
 
Sat Nov 1, 2014 00:37:38 ISTHomeTrainsΣChainsAtlasPNRForumGalleryNewsFAQTripsMembersLoginFeedback
No Recent News for this Train
Other Trains in the News **new
Latest...
Short Origination from Asansol on 22/07/14
Sun Jul 20, 2014 (03:01PM)
⇐ Return Journey: Train# 53061

53062/Hatia-Barddhaman Jn Passenger (UnReserved)

Time-Table HAS CHANGED.
Sep 03 2014 (10:47AM)
Change Departure Station:
Change Arrival Station:
Post a Train Travel TipPost a Train Travel Tip **new
Post a Comment/Question/Picture/VideoPost a Comment/Question/Picture/Video
Pantry/Catering
✕ NO Pantry Car
✕ NO Catering
Loco/Rake Reversals
GMO/Netaji SC Bose Gomoh Junction (6);
RSA - Rake Sharing
Rake/Coach Composition
Loco
BKSC WAG5A
News    PNR    Forum    Time-Table    Availability    Fare Chart    Map    Arr/Dep History    Trips    Gallery    ΣChains    X/O    Timeline    
Travel Time: 9h 10m    34 halts    Distance: 227 km    Avg Speed: 24 km/hr
Type: Passenger
Zone: ER/Eastern
Departs @ 12:00 (Avg 3m late)
Platform# 1
SMTWTFS
Bokaro Steel City/BKSC 
Arrives @ 21:10 (Avg 20m late)
Platform# ???
SMTWTFS
Barddhaman Junction/BWN 

34 halts. 44 intermediate Stations between Bokaro Steel City and Barddhaman Junction

Hide intermediate Stations  Show Old Time-Table

#TrkCodeStation NameX/OArrivesAvgDepartsAvgHaltPFDay#KmSpeedElevZoneAddress
1/==/HTEHatia (3)  -07:55+1--1-119.328657mSER2788599, Jharkhand
1.1/==/AORArgora (1)  08:05-08:05-  1-114.5 28654mSERRanchi, Jharkhand
2/==/RNCRanchi Junction (6)X  08:10+208:15+25m11-112.328632mSERDiv HQ SER, Jharkhand
3/==/NKMNamkom (3)  08:24+408:25+51m--1-108.156618mSERRanchi, Jharkhand
4/=-/TISTatisilwai (3)  08:32+608:33+71m--1-101.647612mSERTatisilwai, Jharkhand
5/--/GAGGangaghat (2)X  08:43+708:44+81m--1-93.849543mSERState Highway 2, Jharkhand
5.1/--/KWKCKherwa Kocha (1)  08:55-08:55-  1-84.7 49454mSERlepsar, Jharkhand
6/--/JONJonha (1)X  08:57+908:58+101m11-83.348470mSERJohna, Jharkhand
7/-=/KITAKita (2)X  09:19+809:20+91m--1-66.442323mSERState Highway 2, Jharkhand
8/==/SLFSilli (3)X  09:31+709:32+81m--1-58.728269mSERRanchi, Jharkhand
9/==/MURIMuri Junction (3)X  09:45+509:50+75m--1-52.729254mSER06522-222444, Jharkhand
10/==/THOTulin (3)X  10:01+710:02+81m--1-47.438267mSERDIST - PURULIYA - 723212, West Bengal
11/==/JAAJhalida (3)  10:14+610:15+301m--1-39.914297mSERJhalida, West Bengal
11.1/==/BKDRBegunkodar (2)XO  10:32-10:32-  1-35.7 14314mSERSH 4A, West Bengal
12/==/KSXKotshila Junction (3)  11:04-111:05+131m11-28.250312mSERPurulia District, West Bengal
12.1/==/DRGUDamru Ghutu (2)X  11:11-11:11-  1-22.9 50291mSERAnandnagar Rd, West Bengal
13/==/PNWPundhag (3)  11:19+1311:20+131m11-16.668291mSERDist - Puruliya -723215, West Bengal
14/==/RDFRadhagaon (3)X  11:29+1211:30+121m--1-6.516247mSERPundag Railway Station Rd, Jharkhand
15/==/BKSCBokaro Steel City (3)»X  11:55+112:00+35m110.027245mSER06542-253861, Jharkhand
15.1/==/BKSNBokaro North CabinX  12:06-12:06-  12.7 27239mSERBokaro Steel City, Jharkhand
16/==/TKBTupkadih (3)  12:15+212:16+41m--16.726233mSERBokaro, Jharkhand
17/==%RJBRajabera  12:27+2112:28+211m--111.421198mECRStation Rd, Jharkhand
18%==%CRPChandrapura Junction (3)  12:40+2012:45+225m1115.657227mECR06549-242555, Jharkhand
19/==/TELOTeloX  12:53+2512:55+362m--123.223227mECRBokaro, Jharkhand
20/==/GMONetaji SC Bose Gomoh Junction (6)XO13:20+3514:30+3370m--133.063239mECRGomoh, Jharkhand
21/==/MRQMatari (3)  14:39+3814:40+381m--142.445246mECRDhanbad, Jharkhand
22/==/NPJENichitpur (2)  14:47+3814:48+381m--147.850224mECRKatras, Jharkhand
23/==/TETTetulmari (2)  14:55+3714:56+381m--153.646225mECRTetulmari, Jharkhand
24/==/BHNBhuli (2)X  15:03+3715:04+371m--158.99230mECRKusunda, Jharkhand
25/==/DHNDhanbad Junction (9)X  15:40 15:30+2217:00 16:40+580 70m7162.845235mECR2319801. Div. HQ ECR, Jharkhand
26/==/DOKMDokra Halt (2)  17:07 16:47+617:08 16:48+61m--168.125211mECRDokra, Jharkhand
27/==/PKAPradhankhunta Junction (3)X  17:18 16:57+517:19 16:58+61m--171.941202mECRDhanbad, Jharkhand
28/==/CAMChhota Ambana (3)X  17:27 17:07+917:28 17:08+111m--178.068200mERDhanbad, Jharkhand
29/==/KAOKalubathan (2)X  17:36 17:16+1117:37 17:17+111m--187.151195mERDhanbad, Jharkhand
30/==/TNWThapar Nagar (2)X  17:42 17:22+1217:43 17:23+131m--191.340144mERDhanbad, Jharkhand
31/==/MMUMugma (3)O  17:49 17:31+1317:50 17:32+411m--196.612135mERNational Highway 2, Jharkhand
32/==/KMMEKumardubi (2)  17:56+2717:57+271m--1101.338135mERDhanbad - 828203(06540-222077), Jharkhand
33/==/BRRBarakar (2)  18:01+2718:02+271m--1103.849129mERDist. Bardhaman, West Bengal
34/==/ULTKulti (3)XO  18:06+2818:07+301m--1107.011148mERdist - bardhaman, West Bengal
35/==/STNSitarampur Junction (5)X  18:14 18:34+1418:15 18:35+161m21112.237139mERG T Rd Before Asansol, West Bengal
36/==/BCQBarachak Junction (4)  18:20 18:41+1818:21 18:42+171m--1115.938127mERdist - bardhaman, West Bengal
37/==/ASNAsansol Junction (7)  18:50+1319:05+1115m61121.053113mERDist - Bardhaman, West Bengal
37.1/==/ASNEAsansol EastX  19:07-19:07-  1122.6 53110mERAsansol, West Bengal
38/==/KPKKalipahari (4)X  19:11+1519:12+161m--1126.370106mERBardhaman distt, West Bengal
38.1/==/NMCNimchaX  19:20-19:20-  1135.3 70106mERRaniganj, West Bengal
39/==/RNGRaniGanj (4)  19:23+1219:24+161m--1139.15592mERRaniganj, West Bengal
39.1/==/BQTBakhtarnagar  19:29-19:29-  1143.6 5587mERKajora, West Bengal
39.2/==/UDLWAndal West CabinX  19:30-19:30-  1144.7 5583mERAndal, Jharkhand
40/==/UDLAndal Junction (6)  19:32+1619:34+162m--1146.48286mERAndal, West Bengal
40.1/==/UDLEAndal East Cabin  19:35-19:35-  1148.4 8280mERAndal, West Bengal
40.2/==/EOCAndal East Outer CabinX  19:36-19:36-  1148.8 8280mERAndal, West Bengal
40.3/==/POLPinjrapol  19:39-19:39-  1152.6 8280mERDurgapur, West Bengal
41/==/OYRWaria (4)  19:40+2819:41+281m--1154.659 ERDurgapur, West Bengal
41.1/==/DCOPDurgapur Coke Oven PlantX  19:47-19:47-  1160.9 5978mERDurgapur, West Bengal
42/==/DGRDurgapur (5)X  19:50+1819:52+192m--1163.45971mERDurgapur, West Bengal
43/==/RBHRajbandh (4)X  20:00+3020:02+292m--1171.25872mERRajbandh Rail Station Rd, West Bengal
44/==/PANPanagarh (4)X  20:10+2220:12+222m--1179.06870mERKaksa, West Bengal
45/==/MNAEMankar (4)X  20:21+2820:23+272m--1189.26265mERMankur, West Bengal
46/==/PAJParaj (4)X  20:31+2620:33+252m--1197.57852mERNational Highway 2, West Bengal
47/==/GLIGalsi (4)X  20:38+2720:39+281m--1204.04947mERBardhaman, West Bengal
47.1/==/INCIIshan Chandi Halt (2)X  20:47-20:47-  1210.6 4943mERDist - Bardhaman, West Bengal
48/==/KANKhana Junction (5)  20:51+2720:52+271m--1213.95442mERDist - Bardhaman, West Bengal
49/==/TITTalit (4)  20:58+3120:59+311m--1219.34237mERDist - Bardhaman, West Bengal
50/==/BWNBarddhaman Junction (8)•  21:10+20---1226.9-34mERDist - Barddhaman, West Bengal
Scroll to Top
Scroll to Bottom